sat.trackr.live / text

‹ back to catalog

STARLINK-34048

NORAD 63816 · 2025-092N

PAYLOAD ACTIVE UNKNOWN

§ Identity

Operator
Country
US
Launch date
2025-05-04
Launch site
AFETR
Launch vehicle
Mass (kg)
RCS (m²)

Purposes: comms

External: N2YO · Heavens-Above · Gunter

§ Orbital elements

Epoch: 2026-05-25T03:27:32.386176Z

Period
94.27 min
Inclination
43.0007°
Eccentricity
0.0001394
Mean motion
15.27589587 rev/d
Perigee alt
482.1 km
Apogee alt
484.0 km
Semi-major
6,861.2 km
B*
5.0335e-4
RAAN
101.0920°
Arg perigee
272.1856°
Mean anomaly
87.8836°
Rev number
6,035

§ Raw data

STARLINK-340481 63816U 25092N   26145.14412484  .00013618  00000+0  50335-3 0  99952 63816  43.0007 101.0920 0001394 272.1856  87.8836 15.27589587 60352

JSON: /api/v1/satellites/63816 · /tle

For live sub-satellite position, see the globe view (requires WebGL).

§ Visibility from observer

Set your observer location to see the next 7 days of passes ≥ 10°. The values pass through the URL so the page stays shareable.

No JS? Fill the form by hand. The geolocation button needs JavaScript.